Home > Weather > Rabat > Past weeks

Flag for Morocco Weather for the Past 2 Weeks in Rabat, Morocco

Now
81 °F

Sunny.


Feels Like: 80 °F
Forecast: 67 / 82 °F
Wind: 21 mph from Northeast

Location: Rabat-Sale

Current Time: May 1, 2016 at 5:10:31 PM

Latest Report: May 1, 2016 at 4:30 PM


Visibility: 10 mi

Pressure: 29.92 "Hg

Humidity: 34%

Dew Point: 50 °F

Location of RabatLocation

Historic Weather in Rabat — Graph

°F

Rabat Temperature Yesterday

Maximum temperature yesterday: 72 °F (at 1:30 PM)
Minimum temperature yesterday: 55 °F (at 4:00 AM)
Average temperature yesterday: 64 °F

High & Low Weather Summary for the Past Weeks

 TemperatureHumidityPressure
High82 °F (May 1, 12:00 PM)94% (Apr 17, 1:00 AM)30.18 "Hg (Apr 17, 1:00 AM)
Low48 °F (Apr 21, 5:30 AM)28% (May 1, 12:30 PM)29.83 "Hg (Apr 18, 4:30 PM)
Average63 °F74%29.98 "Hg
* Reported Apr 16 4:00 PM — May 1 4:00 PM, Rabat, Weather by CustomWeather, © 2016

Note: Actual official high and low records may vary slightly from our data, if they occured in-between our weather recording intervals... More about our weather records

Advertising

Rabat Weather History for the Previous 24 Hours

Scroll right to see more
 ConditionsComfort  
Time TempWeatherWind HumidityBarometerVisibility
4:00 PM
Sun, May 1
79 °FSunny.20 mph34%29.92 "Hg10 mi
3:30 PM79 °FSunny.22 mph34%29.95 "Hg10 mi
3:00 PM79 °FSunny.20 mph34%29.95 "Hg10 mi
2:30 PM79 °FSunny.18 mph37%29.95 "Hg10 mi
2:00 PM81 °FSunny.17 mph39%29.95 "Hg10 mi
1:30 PM79 °FPassing clouds.15 mph48%29.95 "HgN/A
1:00 PM82 °FPassing clouds.15 mph28%29.98 "HgN/A
12:30 PM82 °FPassing clouds.13 mph28%29.98 "HgN/A
12:00 PM82 °FPassing clouds.15 mph30%29.98 "HgN/A
11:30 AM79 °FSunny.16 mph34%29.98 "Hg10 mi
11:00 AM75 °FPassing clouds.13 mph44%30.01 "HgN/A
10:30 AM73 °FPassing clouds.13 mph47%30.01 "HgN/A
10:00 AM73 °FPassing clouds.8 mph50%30.01 "HgN/A
9:30 AM70 °FClear.8 mph64%30.01 "Hg4 mi
9:00 AM66 °FClear.5 mph78%30.01 "Hg4 mi
8:00 AM61 °FFog.2 mph94%30.01 "Hg2 mi
7:30 AM57 °FFog.3 mph94%30.01 "Hg2 mi
7:00 AM55 °FFog.3 mph94%30.01 "Hg2 mi
6:30 AM55 °FFog.3 mph94%29.98 "Hg2 mi
5:30 AM54 °FFog.2 mph94%29.98 "Hg2 mi
4:30 AM52 °FCool.No wind94%29.98 "Hg2 mi
3:30 AM54 °FPassing clouds.1 mph94%30.01 "Hg1 mi
3:00 AM57 °FPassing clouds.No wind94%30.01 "Hg3 mi
2:30 AM54 °FPassing clouds.No wind94%30.01 "Hg3 mi
2:00 AM55 °FPassing clouds.No wind88%30.01 "Hg2 mi
1:00 AM57 °FPassing clouds.No wind88%30.04 "Hg3 mi
12:00 AM59 °FPassing clouds.No wind88%30.07 "Hg3 mi
11:00 PM
Sat, Apr 30
61 °FPassing clouds.3 mph88%30.07 "Hg4 mi
10:30 PM61 °FPassing clouds.5 mph88%30.07 "Hg4 mi
10:00 PM63 °FPassing clouds.7 mph83%30.07 "Hg4 mi
9:30 PM63 °FPassing clouds.7 mph88%30.07 "Hg4 mi
9:00 PM64 °FPassing clouds.7 mph78%30.04 "Hg4 mi
8:30 PM66 °FClear.9 mph78%30.04 "Hg5 mi
8:00 PM66 °FClear.9 mph68%30.04 "Hg5 mi
7:30 PM68 °FClear.10 mph69%30.01 "Hg5 mi
7:00 PM68 °FClear.13 mph69%30.01 "Hg5 mi
6:30 PM70 °FClear.14 mph60%30.01 "Hg5 mi
6:00 PM70 °FClear.13 mph60%30.01 "Hg5 mi
5:00 PM70 °FClear.10 mph64%30.01 "Hg5 mi
Weather by CustomWeather, © 2016

See weather overviewHow to use our weather pages